Washington Pass
Mazama
Latest observation 08/31 18:00 PDT
| Time (PDT) | Temp °F 2170' | RH % 2170' | Spd mph 2170' | Gust mph 2170' | Dir ° 2170' | Pcp1 in 2170' | PcpSum in 2170' | 24Sno in 2170' | SnoHt in 2170' | SR W/m² 2170' |
|---|---|---|---|---|---|---|---|---|---|---|
| 08/31 18:00 | 76 | 28 | 1 | 4 | 164 | 0.00 | 0.07 | -0.3 | -0.0 | 59 |
| 08/31 17:00 | 77 | 28 | 1 | 4 | 161 | 0.00 | 0.07 | -0.3 | -0.0 | 79 |
| 08/31 16:00 | 78 | 28 | 1 | 5 | 151 | 0.00 | 0.07 | -0.4 | -0.3 | 610 |
| 08/31 15:00 | 77 | 29 | 1 | 5 | 164 | 0.00 | 0.07 | -0.4 | -0.6 | 668 |
| 08/31 14:00 | 75 | 31 | 2 | 5 | 149 | 0.00 | 0.07 | -0.4 | -0.6 | 816 |
| 08/31 13:00 | 73 | 34 | 1 | 5 | 151 | 0.00 | 0.07 | -0.3 | 0.2 | 283 |
| 08/31 12:00 | 70 | 36 | 1 | 6 | 131 | 0.00 | 0.07 | -0.3 | -0.1 | 149 |
| 08/31 11:00 | 65 | 43 | 2 | 5 | 75 | 0.00 | 0.07 | -0.2 | 0.1 | 117 |
| 08/31 10:00 | 62 | 48 | 0 | 4 | 243 | 0.00 | 0.07 | -0.3 | -0.3 | 247 |
| 08/31 09:00 | 56 | 59 | 0 | 0 | 311 | 0.00 | 0.07 | -0.3 | -0.1 | 152 |
| 08/31 08:00 | 48 | 76 | 0 | 0 | 324 | 0.00 | 0.07 | -0.1 | -0.0 | 38 |
| 08/31 07:00 | 44 | 84 | 0 | 0 | 283 | 0.00 | 0.07 | -0.1 | -0.1 | 7 |
| 08/31 06:00 | 44 | 83 | 0 | 1 | 299 | 0.00 | 0.07 | -0.2 | -0.1 | 0 |
| 08/31 05:00 | 45 | 79 | 0 | 0 | 319 | 0.00 | 0.07 | -0.2 | -0.3 | 0 |
| 08/31 04:00 | 48 | 75 | 0 | 0 | 341 | 0.00 | 0.07 | -0.2 | -0.1 | 0 |
| 08/31 03:00 | 50 | 70 | 0 | 3 | 318 | 0.00 | 0.07 | -0.2 | -0.1 | 0 |
| 08/31 02:00 | 53 | 64 | 1 | 3 | 293 | 0.00 | 0.07 | -0.2 | 0.3 | 0 |
| 08/31 01:00 | 54 | 62 | 1 | 3 | 279 | 0.00 | 0.07 | -0.2 | 0.0 | 0 |
| 08/31 00:00 | 55 | 59 | 2 | 4 | 267 | 0.00 | 0.07 | -0.2 | -0.1 | 0 |
| 08/30 23:00 | 57 | 57 | 2 | 4 | 258 | 0.00 | 0.07 | -0.2 | 0.1 | 0 |
| 08/30 22:00 | 59 | 53 | 2 | 5 | 255 | 0.00 | 0.07 | -0.2 | 0.0 | 0 |
| 08/30 21:00 | 61 | 48 | 0 | 4 | 262 | 0.00 | 0.07 | -0.2 | 0.0 | 0 |
| 08/30 20:00 | 64 | 44 | 1 | 4 | 278 | 0.00 | 0.07 | -0.3 | -0.1 | 13 |
| 08/30 19:00 | 66 | 42 | 1 | 6 | 309 | 0.00 | 0.07 | -0.3 | -0.1 | 47 |
| 08/30 18:00 | 68 | 39 | 1 | 5 | 310 | 0.00 | 0.07 | -0.3 | -0.1 | 73 |
| 08/30 17:00 | 69 | 37 | 2 | 5 | 303 | 0.00 | 0.07 | -0.3 | -0.1 | 108 |
| 08/30 16:00 | 72 | 33 | 2 | 10 | 339 | 0.00 | 0.07 | -0.4 | -0.0 | 599 |
| 08/30 15:00 | 70 | 35 | 2 | 11 | 360 | 0.00 | 0.07 | -0.4 | -0.2 | 350 |
| 08/30 14:00 | 69 | 35 | 1 | 6 | 302 | 0.00 | 0.07 | -0.3 | -0.1 | 491 |
| 08/30 13:00 | 70 | 32 | 2 | 6 | 301 | 0.00 | 0.07 | -0.3 | -0.0 | 448 |
| 08/30 12:00 | 68 | 33 | 2 | 5 | 299 | 0.00 | 0.07 | -0.3 | -0.2 | 182 |
| 08/30 11:00 | 65 | 36 | 3 | 6 | 296 | 0.00 | 0.07 | -0.3 | 0.0 | 171 |
| 08/30 10:00 | 61 | 41 | 3 | 5 | 288 | 0.00 | 0.07 | -0.3 | 0.1 | 161 |
| 08/30 09:00 | 60 | 42 | 2 | 5 | 290 | 0.00 | 0.07 | -0.2 | 0.1 | 134 |
| 08/30 08:00 | 56 | 50 | 2 | 4 | 284 | 0.00 | 0.07 | -0.2 | -0.1 | 48 |
| 08/30 07:00 | 53 | 53 | 1 | 4 | 281 | 0.00 | 0.07 | -0.2 | -0.9 | 7 |
| 08/30 06:00 | 52 | 54 | 2 | 4 | 273 | 0.00 | 0.07 | -0.3 | -0.8 | 0 |
| 08/30 05:00 | 51 | 54 | 2 | 4 | 261 | 0.00 | 0.07 | -0.3 | -0.6 | 0 |
| 08/30 04:00 | 54 | 51 | 2 | 4 | 272 | 0.00 | 0.07 | -0.3 | -0.5 | 0 |
| 08/30 03:00 | 53 | 54 | 2 | 5 | 280 | 0.00 | 0.07 | -0.2 | -0.6 | 0 |
| 08/30 02:00 | 55 | 50 | 2 | 4 | 269 | 0.00 | 0.07 | -0.2 | -0.4 | 0 |
| 08/30 01:00 | 54 | 51 | 2 | 5 | 263 | 0.00 | 0.07 | -0.2 | -0.5 | 0 |
| 08/30 00:00 | 52 | 56 | 1 | 4 | 251 | 0.00 | 0.07 | -0.2 | -0.5 | 0 |
| 08/29 23:00 | 55 | 50 | 2 | 4 | 295 | 0.00 | 0.07 | -0.2 | -0.5 | 0 |
| 08/29 22:00 | 56 | 49 | 2 | 4 | 293 | 0.00 | 0.07 | -0.3 | -0.5 | 0 |
| 08/29 21:00 | 58 | 46 | 2 | 5 | 302 | 0.00 | 0.07 | -0.2 | -0.3 | 0 |
| 08/29 20:00 | 58 | 46 | 2 | 5 | 299 | 0.00 | 0.07 | -0.3 | -0.3 | 14 |
| 08/29 19:00 | 59 | 46 | 2 | 5 | 305 | 0.00 | 0.07 | -0.3 | -0.4 | 56 |
| 08/29 18:00 | 60 | 45 | 2 | 5 | 312 | 0.00 | 0.07 | -0.2 | 0.5 | 95 |
| 08/29 17:00 | 59 | 52 | 2 | 5 | 302 | 0.00 | 0.07 | -0.2 | -0.2 | 112 |
| 08/29 16:00 | 58 | 55 | 2 | 4 | 293 | 0.00 | 0.07 | -0.2 | -0.2 | 99 |
| 08/29 15:00 | 58 | 62 | 2 | 5 | 312 | 0.00 | 0.07 | -0.2 | -0.2 | 199 |
| 08/29 14:00 | 62 | 43 | 2 | 6 | 276 | 0.00 | 0.07 | -0.3 | -0.2 | 232 |
| 08/29 13:00 | 60 | 55 | 1 | 4 | 44 | 0.00 | 0.07 | -0.3 | 0.2 | 266 |
| 08/29 12:00 | 55 | 69 | 2 | 5 | 72 | 0.00 | 0.07 | -0.2 | -0.3 | 115 |
| 08/29 11:00 | 55 | 72 | 1 | 5 | 49 | 0.00 | 0.07 | -0.2 | -0.3 | 93 |
| 08/29 10:00 | 54 | 84 | 1 | 4 | 301 | 0.00 | 0.07 | -0.2 | -0.2 | 23 |
| 08/29 09:00 | 57 | 64 | 2 | 5 | 293 | 0.00 | 0.07 | -0.2 | -0.1 | 10 |
| 08/29 08:00 | 52 | 90 | 1 | 4 | 290 | 0.00 | 0.07 | -0.2 | 0.0 | 4 |
| 08/29 07:00 | 52 | 85 | 3 | 5 | 297 | 0.07 | 0.07 | -0.2 | -0.2 | 1 |
| 08/29 06:00 | 61 | 47 | 2 | 4 | 275 | 0.00 | 0.00 | -0.2 | 0.1 | 0 |
| 08/29 05:00 | 62 | 44 | 2 | 3 | 283 | 0.00 | 0.00 | -0.3 | 0.0 | 0 |
| 08/29 04:00 | 62 | 44 | 2 | 4 | 318 | 0.00 | 0.00 | -0.3 | 0.0 | 0 |
| 08/29 03:00 | 62 | 43 | 1 | 3 | 298 | 0.00 | 0.00 | -0.3 | -0.1 | 0 |
| 08/29 02:00 | 63 | 43 | 2 | 5 | 308 | 0.00 | 0.00 | -0.3 | -0.1 | 0 |
| 08/29 01:00 | 63 | 43 | 2 | 4 | 276 | 0.00 | 0.00 | -0.3 | 0.1 | 0 |
| 08/29 00:00 | 64 | 43 | 2 | 4 | 283 | 0.00 | 0.00 | -0.3 | -0.1 | 0 |
| 08/28 23:00 | 65 | 39 | 2 | 4 | 278 | 0.00 | 0.00 | -0.3 | -0.0 | 0 |
| 08/28 22:00 | 66 | 37 | 2 | 4 | 272 | 0.00 | 0.00 | -0.3 | -0.4 | 0 |
| 08/28 21:00 | 68 | 35 | 2 | 4 | 268 | 0.00 | 0.00 | -0.3 | -0.5 | 0 |
| 08/28 20:00 | 70 | 32 | 2 | 6 | 267 | 0.00 | 0.00 | -0.3 | 0.2 | 9 |
| 08/28 19:00 | 73 | 28 | 2 | 4 | 282 | 0.00 | 0.00 | -0.4 | -0.1 | 52 |
| 08/28 18:00 | 75 | 25 | 1 | 5 | 282 | 0.00 | 0.00 | -0.3 | -0.4 | 80 |
| 08/28 17:00 | 76 | 24 | 2 | 6 | 286 | 0.00 | 0.00 | -0.3 | -0.6 | 92 |
| 08/28 16:00 | 77 | 22 | 2 | 6 | 292 | 0.00 | 0.00 | -0.4 | 0.1 | 696 |
| 08/28 15:00 | 79 | 20 | 2 | 5 | 307 | 0.00 | 0.00 | -0.4 | -0.3 | 835 |
| 08/28 14:00 | 78 | 21 | 1 | 5 | 293 | 0.00 | 0.00 | -0.4 | -0.5 | 885 |
| 08/28 13:00 | 76 | 23 | 2 | 9 | 304 | 0.00 | 0.00 | -0.3 | -0.1 | 231 |
| 08/28 12:00 | 73 | 25 | 2 | 6 | 295 | 0.00 | 0.00 | -0.3 | -0.5 | 178 |
| 08/28 11:00 | 70 | 28 | 1 | 8 | 351 | 0.00 | 0.00 | -0.3 | -0.1 | 111 |
| 08/28 10:00 | 69 | 31 | 1 | 7 | 295 | 0.00 | 0.00 | -0.3 | -0.6 | 213 |
| 08/28 09:00 | 64 | 42 | 0 | 2 | 320 | 0.00 | 0.00 | -0.3 | -0.3 | 133 |
| 08/28 08:00 | 56 | 59 | 0 | 0 | 327 | 0.00 | 0.00 | -0.2 | -0.2 | 29 |
| 08/28 07:00 | 53 | 60 | 0 | 0 | 341 | 0.00 | 0.00 | -0.2 | -0.2 | 11 |
| 08/28 06:00 | 51 | 66 | 0 | 2 | 23 | 0.00 | 0.00 | -0.2 | -0.2 | 0 |
| 08/28 05:00 | 53 | 61 | 0 | 0 | 222 | 0.00 | 0.00 | -0.2 | -0.5 | 0 |
| 08/28 04:00 | 55 | 57 | 0 | 0 | 255 | 0.00 | 0.00 | -0.2 | -0.3 | 0 |
| 08/28 03:00 | 58 | 50 | 0 | 3 | 316 | 0.00 | 0.00 | -0.2 | -0.3 | 0 |
| 08/28 02:00 | 60 | 48 | 1 | 4 | 300 | 0.00 | 0.00 | -0.2 | -0.2 | 0 |
| 08/28 01:00 | 65 | 40 | 3 | 6 | 271 | 0.00 | 0.00 | -0.3 | -0.2 | 0 |
| 08/28 00:00 | 65 | 40 | 3 | 6 | 275 | 0.00 | 0.00 | -0.3 | -0.3 | 0 |
| 08/27 23:00 | 65 | 40 | 2 | 5 | 282 | 0.00 | 0.00 | -0.3 | -0.3 | 0 |
| 08/27 22:00 | 65 | 39 | 2 | 4 | 282 | 0.00 | 0.00 | -0.3 | -0.3 | 0 |
| 08/27 21:00 | 66 | 37 | 3 | 7 | 287 | 0.00 | 0.00 | -0.3 | -0.5 | 0 |
| 08/27 20:00 | 67 | 34 | 2 | 5 | 286 | 0.00 | 0.00 | -0.3 | -0.1 | 7 |
| 08/27 19:00 | 69 | 32 | 2 | 5 | 287 | 0.00 | 0.00 | -0.3 | -0.2 | 40 |
| 08/27 18:00 | 71 | 31 | 2 | 6 | 297 | 0.00 | 0.00 | -0.3 | 0.7 | 41 |
| 08/27 17:00 | 74 | 28 | 2 | 5 | 296 | 0.00 | 0.00 | -0.3 | 0.6 | 102 |
| 08/27 16:00 | 75 | 25 | 2 | 6 | 283 | 0.00 | 0.00 | -0.3 | -0.2 | 293 |
| 08/27 15:00 | 80 | 20 | 2 | 7 | 299 | 0.00 | 0.00 | -0.4 | -0.3 | 825 |
| 08/27 14:00 | 80 | 18 | 2 | 7 | 302 | 0.00 | 0.00 | -0.4 | -0.3 | 859 |
| 08/27 13:00 | 79 | 15 | 2 | 7 | 271 | 0.00 | 0.00 | -0.4 | -0.3 | 261 |
| 08/27 12:00 | 76 | 22 | 1 | 4 | 289 | 0.00 | 0.00 | -0.3 | 0.7 | 238 |
| 08/27 11:00 | 74 | 26 | 1 | 3 | 282 | 0.00 | 0.00 | -0.3 | -0.4 | 173 |
| 08/27 10:00 | 71 | 34 | 0 | 4 | 26 | 0.00 | 0.00 | -0.3 | -0.4 | 209 |
| 08/27 09:00 | 65 | 40 | 0 | 3 | 285 | 0.00 | 0.00 | -0.3 | 0.9 | 81 |
| 08/27 08:00 | 63 | 41 | 1 | 5 | 277 | 0.00 | 0.00 | -0.3 | 1.5 | 28 |
| 08/27 07:00 | 59 | 44 | 0 | 4 | 293 | 0.00 | 0.00 | -0.2 | 0.8 | 3 |
| 08/27 06:00 | 57 | 51 | 0 | 3 | 281 | 0.00 | 0.00 | -0.2 | 0.5 | 0 |
| 08/27 05:00 | 61 | 42 | 1 | 4 | 285 | 0.00 | 0.00 | -0.3 | 0.6 | 0 |
| 08/27 04:00 | 61 | 49 | 2 | 4 | 278 | 0.00 | 0.00 | -0.3 | 0.7 | 0 |
| 08/27 03:00 | 64 | 44 | 2 | 5 | 264 | 0.00 | 0.00 | -0.3 | 0.5 | 0 |
| 08/27 02:00 | 68 | 39 | 2 | 5 | 256 | 0.00 | 0.00 | -0.3 | 0.5 | 0 |
| 08/27 01:00 | 69 | 37 | 2 | 4 | 259 | 0.00 | 0.00 | -0.3 | 0.5 | 0 |
| 08/27 00:00 | 71 | 34 | 1 | 4 | 265 | 0.00 | 0.00 | -0.3 | 0.7 | 0 |
| 08/26 23:00 | 72 | 31 | 1 | 4 | 275 | 0.00 | 0.00 | -0.3 | 0.5 | 0 |
| 08/26 22:00 | 74 | 28 | 2 | 5 | 269 | 0.00 | 0.00 | -0.3 | 0.3 | 0 |
| 08/26 21:00 | 76 | 27 | 2 | 5 | 271 | 0.00 | 0.00 | -0.3 | 0.2 | 0 |
| 08/26 20:00 | 78 | 28 | 2 | 5 | 273 | 0.00 | 0.00 | -0.3 | 0.4 | 14 |
| 08/26 19:00 | 82 | 26 | 1 | 6 | 275 | 0.00 | 0.00 | -0.4 | -0.3 | 57 |
| 08/26 18:00 | 86 | 21 | 1 | 5 | 274 | 0.00 | 0.00 | -0.4 | -0.3 | 103 |
| 08/26 17:00 | 89 | 16 | 1 | 5 | 163 | 0.00 | 0.00 | -0.4 | -0.4 | 155 |
| 08/26 16:00 | 90 | 15 | 2 | 7 | 148 | 0.00 | 0.00 | -0.4 | -0.2 | 266 |
| 08/26 15:00 | 92 | 15 | 2 | 7 | 116 | 0.00 | 0.00 | -0.4 | -0.4 | 683 |
| 08/26 14:00 | 90 | 15 | 3 | 9 | 126 | 0.00 | 0.00 | -0.4 | -0.3 | 620 |
| 08/26 13:00 | 89 | 16 | 2 | 7 | 133 | 0.00 | 0.00 | -0.4 | -0.3 | 229 |
| 08/26 12:00 | 84 | 21 | 1 | 5 | 113 | 0.00 | 0.00 | -0.3 | -0.6 | 186 |
| 08/26 11:00 | 80 | 24 | 0 | 6 | 110 | 0.00 | 0.00 | -0.4 | 0.7 | 125 |
| 08/26 10:00 | 75 | 29 | 0 | 2 | 339 | 0.00 | 0.00 | -0.3 | 0.7 | 163 |
| 08/26 09:00 | 64 | 47 | 0 | 0 | 321 | 0.00 | 0.00 | -0.3 | 0.1 | 89 |
| 08/26 08:00 | 57 | 60 | 0 | 0 | 329 | 0.00 | 0.00 | -0.2 | 0.0 | 36 |
| 08/26 07:00 | 54 | 60 | 0 | 0 | 319 | 0.00 | 0.00 | -0.2 | -0.2 | 7 |
| 08/26 06:00 | 53 | 62 | 0 | 0 | 297 | 0.00 | 0.00 | -0.2 | -0.1 | 0 |
| 08/26 05:00 | 55 | 58 | 0 | 1 | 328 | 0.00 | 0.00 | -0.3 | -0.1 | 0 |
| 08/26 04:00 | 58 | 52 | 0 | 2 | 334 | 0.00 | 0.00 | -0.2 | -0.1 | 0 |
| 08/26 03:00 | 62 | 45 | 1 | 4 | 314 | 0.00 | 0.00 | -0.3 | -0.5 | 0 |
| 08/26 02:00 | 62 | 45 | 0 | 4 | 323 | 0.00 | 0.00 | -0.2 | -0.3 | 0 |
| 08/26 01:00 | 61 | 46 | 0 | 3 | 333 | 0.00 | 0.00 | -0.3 | -0.6 | 0 |
| 08/26 00:00 | 65 | 41 | 1 | 4 | 326 | 0.00 | 0.00 | -0.3 | -0.5 | 0 |
| 08/25 23:00 | 66 | 39 | 0 | 3 | 321 | 0.00 | 0.00 | -0.3 | -0.3 | 0 |
| 08/25 22:00 | 70 | 35 | 0 | 3 | 302 | 0.00 | 0.00 | -0.2 | -0.1 | 0 |
| 08/25 21:00 | 71 | 39 | 0 | 0 | 272 | 0.00 | 0.00 | -0.3 | -0.1 | 0 |
| 08/25 20:00 | 77 | 30 | 0 | 0 | 214 | 0.00 | 0.00 | -0.3 | 0.0 | 15 |
| 08/25 19:00 | 86 | 21 | 0 | 0 | 128 | 0.00 | 0.00 | -0.4 | -0.6 | 65 |
| 08/25 18:00 | 88 | 18 | 1 | 4 | 117 | 0.00 | 0.00 | -0.4 | -0.6 | 92 |
| 08/25 17:00 | 91 | 13 | 1 | 6 | 139 | 0.00 | 0.00 | -0.4 | 0.1 | 166 |
| 08/25 16:00 | 91 | 14 | 1 | 4 | 174 | 0.00 | 0.00 | -0.4 | -0.8 | 448 |
| 08/25 15:00 | 92 | 14 | 1 | 6 | 163 | 0.00 | 0.00 | -0.4 | -1.0 | 727 |
| 08/25 14:00 | 90 | 16 | 2 | 5 | 160 | 0.00 | 0.00 | -0.4 | -1.0 | 843 |
| 08/25 13:00 | 87 | 18 | 2 | 8 | 113 | 0.00 | 0.00 | -0.3 | -0.8 | 195 |
| 08/25 12:00 | 83 | 22 | 2 | 5 | 81 | 0.00 | 0.00 | -0.3 | -0.8 | 169 |
| 08/25 11:00 | 77 | 26 | 1 | 5 | 73 | 0.00 | 0.00 | -0.4 | -0.6 | 145 |
| 08/25 10:00 | 73 | 32 | 0 | 3 | 199 | 0.00 | 0.00 | -0.3 | -0.2 | 187 |
| 08/25 09:00 | 66 | 42 | 0 | 0 | 315 | 0.00 | 0.00 | -0.3 | -0.1 | 103 |
| 08/25 08:00 | 55 | 66 | 0 | 0 | 304 | 0.00 | 0.00 | -0.2 | 0.0 | 31 |
| 08/25 07:00 | 49 | 73 | 0 | 0 | 309 | 0.00 | 0.00 | -0.2 | 0.0 | 6 |
| 08/25 06:00 | 50 | 71 | 0 | 0 | 310 | 0.00 | 0.00 | -0.2 | -0.1 | 0 |
| 08/25 05:00 | 51 | 69 | 0 | 0 | 325 | 0.00 | 0.00 | -0.2 | -0.1 | 0 |
| 08/25 04:00 | 52 | 66 | 0 | 0 | 284 | 0.00 | 0.00 | -0.2 | -0.1 | 0 |
| 08/25 03:00 | 53 | 64 | 0 | 0 | 316 | 0.00 | 0.00 | -0.2 | -0.2 | 0 |
| 08/25 02:00 | 55 | 61 | 0 | 3 | 331 | 0.00 | 0.00 | -0.2 | -0.2 | 0 |
| 08/25 01:00 | 57 | 58 | 0 | 0 | 313 | 0.00 | 0.00 | -0.2 | -0.3 | 0 |
| 08/25 00:00 | 59 | 54 | 0 | 0 | 332 | 0.00 | 0.00 | -0.2 | -0.3 | 0 |
| 08/24 23:00 | 61 | 50 | 0 | 0 | 293 | 0.00 | 0.00 | -0.3 | -0.6 | 0 |
| 08/24 22:00 | 64 | 49 | 0 | 0 | 264 | 0.00 | 0.00 | -0.3 | -0.3 | 0 |
| 08/24 21:00 | 67 | 40 | 0 | 0 | 259 | 0.00 | 0.00 | -0.3 | -0.5 | 0 |
| 08/24 20:00 | 73 | 33 | 0 | 0 | 227 | 0.00 | 0.00 | -0.3 | -0.6 | 7 |
| 08/24 19:00 | 81 | 23 | 1 | 3 | 167 | 0.00 | 0.00 | -0.4 | -0.6 | 29 |

